GRBBETA

Last updated on Sat Dec 13 2025 00:03:49 GMT+0000 (Coordinated Universal Time)

1 60237U 24128C 25345.82107664 .00007872 00000+0 55100-3 0 9995 2 60237 61.9894 152.7698 0056311 96.4497 264.3011 15.04737572 78058
UTC large
Height (km)
Speed (km/s)
/
Latitude / Longitude
Inclination (degrees)
Orbital Period (minutes)
Azimuth
Elevation
Range (km)
Doppler Factor

Next 0 passes for location: London (51.5072 / 0.1276)

Sorry there are no passes over London.